Estación de La capilla

Ultimos registro cada 15 minutos 92
Estación Fecha / Hora Temperatura Humedad Lluvia Velocidad Dirección Radiación Presion
92 La capilla 03-05-2026 23:00 8,2 99 0 0 360 0 1092,9
91 La capilla 03-05-2026 22:45 8,2 99 0,2 0 360 0 1093,2
90 La capilla 03-05-2026 22:15 8,2 99 0,2 0 360 0 1093,3
89 La capilla 03-05-2026 22:00 8,2 99 0 0 360 0 1093,4
88 La capilla 03-05-2026 21:45 8,2 99 0,2 0 360 0 1093,4
87 La capilla 03-05-2026 21:30 8,1 99 0 0 360 0 1093,3
86 La capilla 03-05-2026 21:15 8,2 99 0,2 0 360 0 1093,2
85 La capilla 03-05-2026 21:00 8,1 99 0 0 360 0 1093,2
84 La capilla 03-05-2026 20:45 8,1 99 0,2 0 360 0 1093,4
83 La capilla 03-05-2026 20:30 8,1 99 0,2 0 360 0 1093,4
82 La capilla 03-05-2026 20:15 7,9 99 0 0 360 0 1093,5
81 La capilla 03-05-2026 20:00 7,9 99 0 0 360 0 1093,5
80 La capilla 03-05-2026 19:45 7,9 98 0 0 360 0 1093,4
79 La capilla 03-05-2026 19:30 7,9 98 0 0 360 0 1093,1
78 La capilla 03-05-2026 19:15 7,9 98 0 0 360 0 1093
77 La capilla 03-05-2026 19:00 7,9 98 0 0 360 0 1093
76 La capilla 03-05-2026 18:45 8 98 0 0 360 0 1092,9
75 La capilla 03-05-2026 18:30 8 98 0 0 360 0 1092,7
74 La capilla 03-05-2026 18:15 8 98 0 0 360 0 1092,8
73 La capilla 03-05-2026 18:00 8,1 98 0 0 360 0 1092,6
72 La capilla 03-05-2026 17:45 8,1 98 0 0 360 0 1092,5
71 La capilla 03-05-2026 17:30 8,2 98 0 0 360 5 1092,5
70 La capilla 03-05-2026 17:15 8,2 98 0 0 360 9 1092,4
69 La capilla 03-05-2026 17:00 8,2 98 0 0 360 12 1092,8
68 La capilla 03-05-2026 16:45 8,2 98 0 0,4 360 11 1092,7
67 La capilla 03-05-2026 16:30 8,2 98 0 0 360 25 1092,4
66 La capilla 03-05-2026 16:15 8,2 98 0 0,4 360 25 1092,6
65 La capilla 03-05-2026 16:00 8,2 98 0 0 360 21 1092,8
64 La capilla 03-05-2026 15:45 8,2 97 0 0,4 360 26 1092,2
63 La capilla 03-05-2026 15:30 8,2 97 0,2 0,4 360 19 1091,9
62 La capilla 03-05-2026 15:15 8,2 97 0 0 360 25 1091,8
61 La capilla 03-05-2026 15:00 8,2 97 0 0 360 26 1091,7
60 La capilla 03-05-2026 14:45 8,3 97 0,2 0 360 32 1091,7
59 La capilla 03-05-2026 14:30 8,2 97 0 0 360 40 1091,5
58 La capilla 03-05-2026 14:15 8,2 97 0 0,9 360 39 1091,6
57 La capilla 03-05-2026 14:00 8,1 98 0,2 0 360 58 1091,7
56 La capilla 03-05-2026 13:45 7,9 97 0,2 0 360 56 1091,8
55 La capilla 03-05-2026 13:30 7,9 97 0,2 0,9 360 62 1092,1
54 La capilla 03-05-2026 13:15 7,9 97 0,4 0,4 360 46 1092,4
53 La capilla 03-05-2026 13:00 7,8 96 1 0 360 69 1092
52 La capilla 03-05-2026 12:45 7,7 96 0,8 0 360 84 1092,2
51 La capilla 03-05-2026 12:30 7,6 96 0,4 0 360 74 1092
50 La capilla 03-05-2026 12:15 7,5 96 0 0 360 65 1092
49 La capilla 03-05-2026 12:00 7,3 96 0 0 360 58 1091,9
48 La capilla 03-05-2026 11:45 7,3 97 0 0 360 56 1091,9
47 La capilla 03-05-2026 11:30 7,1 97 0 0 360 69 1092,1
46 La capilla 03-05-2026 11:15 6,9 97 0 0,4 360 98 1091,8
45 La capilla 03-05-2026 11:00 6,8 97 0,2 0 360 58 1092
44 La capilla 03-05-2026 10:45 6,7 96 0 0,4 360 98 1091,5
43 La capilla 03-05-2026 10:30 6,5 96 1,2 1,3 360 95 1091,7
42 La capilla 03-05-2026 10:15 6,4 95 1 0 360 28 1091,8
41 La capilla 03-05-2026 10:00 6,3 96 0 0,4 360 62 1091,9
40 La capilla 03-05-2026 09:45 6 98 0 0 360 42 1091,6
39 La capilla 03-05-2026 09:30 5,7 98 0 0 360 72 1091,4
38 La capilla 03-05-2026 09:15 5,4 99 0 0 360 74 1091,6
37 La capilla 03-05-2026 09:00 5,2 99 0 0 360 58 1091,3
36 La capilla 03-05-2026 08:45 4,9 99 0 0 360 56 1091,3
35 La capilla 03-05-2026 08:30 4,6 99 0 0 360 23 1091,1
34 La capilla 03-05-2026 08:15 4,3 99 0 0 360 14 1091,1
33 La capilla 03-05-2026 08:00 4 99 0 0 360 21 1091,2
32 La capilla 03-05-2026 07:45 3,8 98 0 0 360 5 1091,3
31 La capilla 03-05-2026 07:30 3,7 98 0 0 360 0 1091,3
30 La capilla 03-05-2026 07:15 3,6 98 0 0 360 0 1090,9
29 La capilla 03-05-2026 07:00 3,5 98 0 0 360 0 1090,9
28 La capilla 03-05-2026 06:45 3,4 98 0 0 360 0 1091,2
27 La capilla 03-05-2026 06:30 3,2 98 0 0 360 0 1091,4
26 La capilla 03-05-2026 06:15 3,1 98 0 0 360 0 1091,1
25 La capilla 03-05-2026 06:00 2,8 98 0 0 360 0 1091,2
24 La capilla 03-05-2026 05:45 2,4 98 0 0 360 0 1090,9
23 La capilla 03-05-2026 05:30 2,3 97 0 0 360 0 1090,9
22 La capilla 03-05-2026 05:15 2,4 97 0 0 360 0 1090,6
21 La capilla 03-05-2026 05:00 2,4 98 0 0 360 0 1090,5
20 La capilla 03-05-2026 04:45 2,4 97 0 0 360 0 1090,4
19 La capilla 03-05-2026 04:30 2,4 98 0 0 360 0 1090,5
18 La capilla 03-05-2026 04:15 2,1 98 0 0 360 0 1090,8
17 La capilla 03-05-2026 04:00 1,6 97 0 0 360 0 1090,9
16 La capilla 03-05-2026 03:45 1,1 96 0 0 360 0 1090,9
15 La capilla 03-05-2026 03:30 1,2 96 0 0 360 0 1091
14 La capilla 03-05-2026 03:15 1,4 96 0 0 360 0 1091
13 La capilla 03-05-2026 03:00 1,5 96 0 0 360 0 1091,2
12 La capilla 03-05-2026 02:45 1,7 96 0 0 360 0 1091,4
11 La capilla 03-05-2026 02:30 2,1 95 0 0 360 0 1091,3
10 La capilla 03-05-2026 02:15 2,6 95 0 0 360 0 1090,9
9 La capilla 03-05-2026 02:00 2,8 95 0 0 360 0 1091
8 La capilla 03-05-2026 01:45 3,3 95 0 0 360 0 1091,1
7 La capilla 03-05-2026 01:30 3,8 97 0 0 360 0 1091,7
6 La capilla 03-05-2026 01:15 3,8 97 0 0 360 0 1091,4
5 La capilla 03-05-2026 01:00 3,7 97 0 0 360 0 1091,2
4 La capilla 03-05-2026 00:45 3,4 98 0 0 360 0 1091,5
3 La capilla 03-05-2026 00:30 2,3 97 0 0 360 0 1091,3
2 La capilla 03-05-2026 00:15 2,1 95 0 0 360 0 1091,7
1 La capilla 03-05-2026 00:00 2,5 95 0 0 360 0 1091,8